EW0139 Weather Reports


time (UTC)temp
F
wind
direction
speed
knots
gust
knots
rain 1hr
in
rain 24hr
in
rain mn
in
humidity
%
barometer
mb
20260503032744 51 302 0.9 0.9 0.00 0.00 0.00 58 1013.6
20260503031744 52 302 0.0 1.7 0.00 0.00 0.00 56 1013.7
20260503030745 52 301 0.0 0.9 0.00 0.00 0.00 55 1013.6
20260503025746 52 302 0.0 1.7 0.00 0.00 0.00 56 1013.6
20260503024750 54 302 1.7 1.7 0.00 0.00 0.00 51 1013.5
20260503023814 54 302 0.0 1.7 0.00 0.00 0.00 50 1013.3
20260503022757 55 302 1.7 1.7 0.00 0.00 0.00 50 1013.3
20260503021756 56 302 0.9 1.7 0.00 0.00 0.00 49 1013.2
20260503020744 58 302 1.7 1.7 0.00 0.00 0.00 48 1013.1
20260503015744 60 302 0.0 1.7 0.00 0.00 0.00 44 1013.1
20260503014745 61 302 0.9 0.9 0.00 0.00 0.00 39 1013.0
20260503013750 62 302 0.9 2.6 0.00 0.00 0.00 38 1013.0
20260503012751 62 301 1.7 3.5 0.00 0.00 0.00 37 1013.1
20260503011756 63 302 1.7 4.3 0.00 0.00 0.00 36 1013.1
20260503010820 64 300 4.3 8.7 0.00 0.00 0.00 34 1013.1
20260503005739 65 312 8.7 9.6 0.00 0.00 0.00 33 1013.2
20260503004744 65 304 7.8 12.2 0.00 0.00 0.00 33 1013.2
20260503003750 66 298 8.7 12.2 0.00 0.00 0.00 32 1013.3
20260503002749 66 292 8.7 15.6 0.00 0.00 0.00 32 1013.4
20260503001751 66 293 8.7 12.2 0.00 0.00 0.00 31 1013.5
20260503000750 66 284 4.3 10.4 0.00 0.00 0.00 31 1013.6
20260502235750 66 302 10.4 13.9 0.00 0.00 0.00 31 1013.5
20260502234753 66 281 7.8 14.8 0.00 0.00 0.00 31 1013.6
20260502233754 67 261 9.6 13.9 0.00 0.00 0.00 30 1013.7
20260502232759 66 292 12.2 14.8 0.00 0.00 0.00 31 1013.8
20260502231759 66 306 11.3 18.2 0.00 0.00 0.00 31 1013.9
20260502230744 66 321 8.7 11.3 0.00 0.00 0.00 32 1013.9
20260502225743 66 331 10.4 15.6 0.00 0.00 0.00 31 1013.7
20260502224744 67 275 8.7 15.6 0.00 0.00 0.00 33 1013.9
20260502223747 67 318 10.4 17.4 0.00 0.00 0.00 31 1013.9
20260502222808 66 300 11.3 24.3 0.00 0.00 0.00 31 1014.0
20260502221752 66 302 6.1 13.9 0.00 0.00 0.00 31 1014.0
20260502220752 67 301 12.2 15.6 0.00 0.00 0.00 31 1014.1
20260502215755 66 309 7.8 14.8 0.00 0.00 0.00 32 1014.3
20260502214756 67 273 14.8 15.6 0.00 0.00 0.00 32 1014.3
20260502213743 68 306 13.0 17.4 0.00 0.00 0.00 31 1014.3
20260502212748 67 286 8.7 20.0 0.00 0.00 0.00 31 1014.4
20260502211808 67 309 13.0 18.2 0.00 0.00 0.00 32 1014.5
20260502210747 68 329 9.6 18.2 0.00 0.00 0.00 32 1014.4
20260502205747 67 319 8.7 16.5 0.00 0.00 0.00 33 1014.8
20260502204752 66 292 12.2 16.5 0.00 0.00 0.00 33 1014.8
20260502203812 65 312 8.7 12.2 0.00 0.00 0.00 34 1014.9
20260502202751 66 309 9.6 20.0 0.00 0.00 0.00 34 1014.9
20260502201817 67 321 14.8 19.1 0.00 0.00 0.00 32 1014.9
20260502200755 67 284 18.2 25.2 0.00 0.00 0.00 33 1014.9
20260502195759 67 290 14.8 18.2 0.00 0.00 0.00 33 1014.8
20260502194821 66 317 12.2 14.8 0.00 0.00 0.00 33 1014.7
20260502193800 66 331 9.6 17.4 0.00 0.00 0.00 32 1015.1
20260502192759 68 314 15.6 18.2 0.00 0.00 0.00 32 1015.1
20260502191744 67 323 13.0 20.9 0.00 0.00 0.00 34 1015.1
20260502190745 66 338 5.2 20.0 0.00 0.00 0.00 34 1015.2
20260502185746 65 306 12.2 15.6 0.00 0.00 0.00 35 1015.2
20260502184806 66 316 12.2 18.2 0.00 0.00 0.00 34 1015.3
20260502183749 66 327 11.3 17.4 0.00 0.00 0.00 36 1015.3
20260502182753 66 344 6.1 17.4 0.00 0.00 0.00 35 1015.2
20260502181754 66 325 10.4 19.1 0.00 0.00 0.00 34 1015.3
20260502180755 66 333 10.4 17.4 0.00 0.00 0.00 35 1015.3
20260502163749 65 311 13.9 19.1 0.00 0.00 0.00 40 1014.9
20260502162749 64 316 14.8 20.9 0.00 0.00 0.00 39 1014.8
20260502161753 64 310 15.6 20.9 0.00 0.00 0.00 40 1014.7
20260502160755 63 309 18.2 18.2 0.00 0.00 0.00 40 1015.0
20260502151759 61 328 7.8 13.9 0.00 0.00 0.00 42 1014.6
20260502150759 62 315 13.0 15.6 0.00 0.00 0.00 40 1014.6
20260502130745 48 254 5.2 7.8 0.00 0.00 0.00 62 1014.2
20260502123751 42 19 0.9 2.6 0.00 0.00 0.00 71 1014.0
20260502122752 41 19 2.6 3.5 0.00 0.00 0.00 70 1014.0
20260502121754 42 6 2.6 2.6 0.00 0.00 0.00 68 1013.8
20260502120753 42 342 0.0 2.6 0.00 0.00 0.00 69 1013.8
20260502115814 41 340 0.9 3.5 0.00 0.00 0.00 71 1013.7
20260502114820 40 342 0.9 2.6 0.00 0.00 0.00 72 1013.6
20260502113741 40 342 1.7 2.6 0.00 0.00 0.00 73 1013.5
20260502112741 41 338 0.0 0.0 0.00 0.00 0.00 70 1013.4
20260502111741 41 338 0.0 0.0 0.00 0.00 0.00 70 1013.3
20260502110749 42 338 0.9 2.6 0.00 0.00 0.00 69 1013.4
20260502105749 42 338 0.0 2.6 0.00 0.00 0.00 68 1013.5
20260502104749 42 338 2.6 3.5 0.00 0.00 0.00 69 1013.3
20260502103750 42 338 1.7 3.5 0.00 0.00 0.00 70 1013.2
20260502102753 42 338 2.6 4.3 0.00 0.00 0.00 71 1013.2
20260502101738 41 338 1.7 4.3 0.00 0.00 0.00 72 1013.1
20260502100742 41 338 3.5 3.5 0.00 0.00 0.00 73 1013.0
20260502090759 41 338 1.7 6.1 0.00 0.00 0.00 71 1013.0
20260502070744 44 328 0.0 5.2 0.00 0.00 0.00 60 1013.4
20260502065749 46 329 2.6 8.7 0.00 0.00 0.00 56 1013.3
20260502064754 47 350 2.6 3.5 0.00 0.00 0.00 54 1013.2
20260502063752 47 34 0.9 4.3 0.00 0.00 0.00 53 1012.9
20260502062813 48 34 1.7 4.3 0.00 0.00 0.00 51 1012.8
20260502060752 51 336 2.6 3.5 0.00 0.00 0.00 46 1012.9
20260502055755 53 123 0.0 2.6 0.00 0.00 0.00 43 1012.8
20260502054819 54 123 0.0 4.3 0.00 0.00 0.00 42 1012.9
20260502053801 55 123 5.2 5.2 0.00 0.00 0.00 41 1012.8
20260502052822 55 124 4.3 5.2 0.00 0.00 0.00 40 1012.9
20260502051746 55 134 2.6 4.3 0.00 0.00 0.00 40 1013.0
20260502050745 55 142 3.5 6.1 0.00 0.00 0.00 41 1013.1
20260502045747 55 144 5.2 8.7 0.00 0.00 0.00 42 1013.1
20260502044745 55 144 7.8 8.7 0.00 0.00 0.00 41 1013.1
20260502043807 54 139 3.5 6.1 0.00 0.00 0.00 41 1013.2
20260502042750 54 146 4.3 6.1 0.00 0.00 0.00 41 1013.3
20260502041751 55 138 4.3 6.1 0.00 0.00 0.00 40 1013.3
20260502040815 55 136 4.3 6.1 0.00 0.00 0.00 38 1013.2
20260502035757 56 136 2.6 7.8 0.00 0.00 0.00 38 1013.4
20260502034800 55 146 4.3 6.1 0.00 0.00 0.00 39 1013.5
20260502033744 55 173 2.6 5.2 0.00 0.00 0.00 39 1013.5